Regional Weather Roundup
Issued by NWS Northern Indiana

Home | Current Version | Previous Version | Graphics & Text | Print | Product List | Glossary On
Versions: 1 2 3 4 5 6 7 8 9 10 11 12 13 14 15 16 17 18 19 20 21 22 23 24 25 26 27 28 29 30 31 32 33 34 35 36 37 38 39 40 41 42 43 44 45 46 47 48 49 50
000
ASUS43 KIWX 260610
RWRIWX

KIWX WEATHER ROUNDUP
NATIONAL WEATHER SERVICE NORTHERN INDIANA
200 AM EDT TUE MAY 26 2015

NOTE: "FAIR" INDICATES FEW OR NO CLOUDS BELOW 12,000 FEET WITH NO
SIGNIFICANT WEATHER AND/OR OBSTRUCTIONS TO VISIBILITY.

* THESE STATIONS ARE NOT UNDER NWS QUALITY CONTROL. THEY ALSO MAY NOT
  REPORT WEATHER SUCH AS PRECIPITATION OR FOG.

INZ001>027-260700-
NORTHERN INDIANA

CITY           SKY/WX    TMP DP  RH WIND       PRES   REMARKS
GARY*          CLEAR     72  64  75 S7        29.97S
VALPARAISO     CLEAR     68  63  84 S9        29.99F
6HR MIN TEMP:  68; 6HR MAX TEMP:  80;

MICHIGAN CITY* CLEAR     68  61  77 S8        29.99S
LAPORTE*       CLEAR     70  65  84 S6        30.00S
6HR MIN TEMP:  70; 6HR MAX TEMP:  79;

KNOX*          CLEAR     68  64  88 S9        29.99S
SOUTH BEND     CLEAR     69  63  81 S8        30.01S
6HR MIN TEMP:  69; 6HR MAX TEMP:  79;

GOSHEN         CLEAR     68  63  84 S9        30.01F
6HR MIN TEMP:  68; 6HR MAX TEMP:  77;

MONTICELLO*    CLEAR     67  66  94 S7        30.01F
6HR MIN TEMP:  67; 6HR MAX TEMP:  76;

LOGANSPORT*    CLEAR     64  61  88 S9        30.04S
ROCHESTER*     CLEAR     70  64  83 S7        30.02S
WARSAW*        CLEAR     68  64  88 S3        30.03F
ANGOLA*        CLEAR     66  63  88 S6        30.04S
FORT WAYNE     MOCLDY    66  62  87 S9        30.06S
6HR MIN TEMP:  66; 6HR MAX TEMP:  77;

HUNTINGTON*    CLEAR     66  63  89 S6        30.04F
6HR MIN TEMP:  66; 6HR MAX TEMP:  76;

PERU/GRISSOM   CLEAR     66  64  92 S10       30.02F
6HR MIN TEMP:  66; 6HR MAX TEMP:  76;

MARION*        CLEAR     65  61  88 S10       30.06F
6HR MIN TEMP:  29; 6HR MAX TEMP:  86;


$$
INZ028>050-260700-
CENTRAL INDIANA

CITY           SKY/WX    TMP DP  RH WIND       PRES   REMARKS
LAFAYETTE      PTCLDY    67  64  90 S8        30.01F
6HR MIN TEMP:  66; 6HR MAX TEMP:  76;

KOKOMO*        CLEAR     66  63  88 S12       30.04F
6HR MIN TEMP:  66; 6HR MAX TEMP:  77;

MUNCIE*        MOCLDY    67  63  87 S6        30.07F
6HR MIN TEMP:  67; 6HR MAX TEMP:  76;

INDIANAPOLIS   PTCLDY    65  62  90 S5        30.05F
6HR MIN TEMP:  65; 6HR MAX TEMP:  74;


$$
MIZ043>046-050>051-056>058-064>065-071>073-077>080-260700-
SOUTHWEST LOWER MICHIGAN

CITY           SKY/WX    TMP DP  RH WIND       PRES   REMARKS
BATTLE CREEK   CLEAR     68  62  81 S10       30.02S
6HR MIN TEMP:  66; 6HR MAX TEMP:  75;

BENTON HARBOR  PTCLDY    69  62  78 S9        29.97F
6HR MIN TEMP:  63; 6HR MAX TEMP:  74;

COLDWATER*     CLEAR     68  62  80 S5        30.02F
6HR MIN TEMP:  68; 6HR MAX TEMP:  76;

HILLSDALE*     CLEAR     67  64  91 S5        30.05S
6HR MIN TEMP:  67; 6HR MAX TEMP:  77;

HOLLAND        PTCLDY    65  59  81 S8        29.97F
6HR MIN TEMP:  63; 6HR MAX TEMP:  74;

GRAND RAPIDS   CLEAR     67  60  78 S9        29.97F
6HR MIN TEMP:  64; 6HR MAX TEMP:  74;

KALAMAZOO      CLEAR     69  62  78 S8        30.01S
6HR MIN TEMP:  66; 6HR MAX TEMP:  75;

STURGIS*       CLEAR     66  64  94 S9        30.02S
THREE RIVERS*  FAIR      67  62  83 S8        30.02S
6HR MIN TEMP:  67; 6HR MAX TEMP:  76;


$$
OHZ001>008-015>018-024>025-260700-
NORTHWEST OHIO

CITY           SKY/WX    TMP DP  RH WIND       PRES   REMARKS
WAUSEON*       FAIR      68  64  88 SW8       30.05S
DEFIANCE       PTCLDY    68  62  81 S9        30.05F
6HR MIN TEMP:  68; 6HR MAX TEMP:  79;

FINDLAY        CLOUDY    69  62  78 S12       30.07F
6HR MIN TEMP:  69; 6HR MAX TEMP:  76;

TOLEDO EXPRESS CLOUDY    69  62  78 SW8       30.05F
6HR MIN TEMP:  69; 6HR MAX TEMP:  79;

TOLEDO METCALF CLOUDY    70  61  73 SW9       30.06F
6HR MIN TEMP:  70; 6HR MAX TEMP:  80;

LIMA           CLOUDY    68  63  84 S8        30.08F
6HR MIN TEMP:  68; 6HR MAX TEMP:  75;


$$
AND FOR LAKE MICHIGAN COASTAL AND OPEN LAKE BUOY OBSERVATIONS

STATION/POSITION TEMP    WIND        PRES    VSBY  WAVE
                 AIR SEA DIR/SP/G                  HT/PER
                 (F)     (DEG/KT/KT) (MB)    (MI)  (FT/S)
CALUMET HARBOR    71     190/  9/ 14   N/A
MICHIGAN CITY     71     170/ 11/ 15   N/A
BURNS HARBOR      70     190/ 11/ 15 1015.2F
SAINT JOSEPH      71     150/  4/ 10 1015.6R
SOUTH LAKE BUOY   48 38  190/ 10/ 12 1014.0F         1
4 MI NW BRIDGMAN  62 54  210/ 10/ 12   N/A           1/ 3
MICHIGAN CITY     63 52  210/ 10/ 12   N/A           1/ 2

$$
&&


USA.gov is the U.S. government's official web portal to all federal, state and local government web resources and services.